Time,TemperatureF,DewpointF,PressureIn,WindDirection,WindDirectionDegrees,WindSpeedMPH,WindSpeedGustMPH,Humidity,HourlyPrecipIn,Conditions,Clouds,dailyrainin,SoftwareType,DateUTC
2013-02-01 00:00:00,26.7,16.2,29.92,West,279,0.0,1.0,64,0.00,,,0.00,WUHU216DAVISVP2,2013-02-01 05:00:00,
2013-02-01 00:01:00,26.7,16.2,29.92,West,279,0.0,1.0,64,0.00,,,0.00,WUHU216DAVISVP2,2013-02-01 05:01:00,
2013-02-01 00:02:00,26.7,15.8,29.92,West,279,0.0,1.0,63,0.00,,,0.00,WUHU216DAVISVP2,2013-02-01 05:02:00,
2013-02-01 00:03:00,26.6,15.4,29.92,West,279,0.0,1.0,62,0.00,,,0.00,WUHU216DAVISVP2,2013-02-01 05:03:00,
2013-02-01 00:08:00,26.6,15.7,29.92,West,279,0.0,1.0,63,0.00,,,0.00,WUHU216DAVISVP2,2013-02-01 05:08:00,
2013-02-01 00:13:00,26.5,16.0,29.92,West,279,0.0,1.0,64,0.00,,,0.00,WUHU216DAVISVP2,2013-02-01 05:13:00,
2013-02-01 00:18:00,26.4,15.9,29.91,West,279,0.0,0.0,64,0.00,,,0.00,WUHU216DAVISVP2,2013-02-01 05:18:00,
2013-02-01 00:23:00,26.4,15.6,29.92,West,279,0.0,1.0,63,0.00,,,0.00,WUHU216DAVISVP2,2013-02-01 05:23:00,
2013-02-01 00:28:00,26.3,15.5,29.91,West,279,0.0,1.0,63,0.00,,,0.00,WUHU216DAVISVP2,2013-02-01 05:28:00,
2013-02-01 00:33:00,26.2,16.1,29.91,West,279,0.0,1.0,65,0.00,,,0.00,WUHU216DAVISVP2,2013-02-01 05:33:00,
2013-02-01 00:38:00,26.2,16.4,29.90,West,279,0.0,1.0,66,0.00,,,0.00,WUHU216DAVISVP2,2013-02-01 05:38:00,
2013-02-01 00:43:00,26.3,16.5,29.90,West,279,0.0,1.0,66,0.00,,,0.00,WUHU216DAVISVP2,2013-02-01 05:43:00,
2013-02-01 00:48:00,26.3,16.5,29.89,West,279,0.0,0.0,66,0.00,,,0.00,WUHU216DAVISVP2,2013-02-01 05:48:00,
2013-02-01 00:53:00,26.2,16.4,29.89,West,279,0.0,0.0,66,0.00,,,0.00,WUHU216DAVISVP2,2013-02-01 05:53:00,
2013-02-01 00:58:00,26.2,16.4,29.89,West,279,0.0,1.0,66,0.00,,,0.00,WUHU216DAVISVP2,2013-02-01 05:58:00,
2013-02-01 01:04:00,26.1,16.3,29.89,West,279,0.0,1.0,66,0.00,,,0.00,WUHU216DAVISVP2,2013-02-01 06:04:00,
2013-02-01 01:09:00,26.1,16.3,29.89,West,279,0.0,1.0,66,0.00,,,0.00,WUHU216DAVISVP2,2013-02-01 06:09:00,
2013-02-01 01:14:00,26.0,16.6,29.90,West,279,0.0,1.0,67,0.00,,,0.00,WUHU216DAVISVP2,2013-02-01 06:14:00,
2013-02-01 01:19:00,25.9,16.5,29.90,West,279,0.0,1.0,67,0.00,,,0.00,WUHU216DAVISVP2,2013-02-01 06:19:00,
2013-02-01 01:24:00,25.7,16.7,29.90,West,279,0.0,0.0,68,0.00,,,0.00,WUHU216DAVISVP2,2013-02-01 06:24:00,
2013-02-01 01:29:00,25.6,16.9,29.90,West,279,0.0,0.0,69,0.00,,,0.00,WUHU216DAVISVP2,2013-02-01 06:29:00,
2013-02-01 01:34:00,25.4,16.7,29.90,West,279,0.0,0.0,69,0.00,,,0.00,WUHU216DAVISVP2,2013-02-01 06:34:00,
2013-02-01 01:39:00,25.3,16.9,29.90,West,279,0.0,0.0,70,0.00,,,0.00,WUHU216DAVISVP2,2013-02-01 06:39:00,
2013-02-01 01:44:00,25.2,17.2,29.90,West,279,0.0,0.0,71,0.00,,,0.00,WUHU216DAVISVP2,2013-02-01 06:44:00,
2013-02-01 01:49:00,25.2,17.2,29.90,West,279,0.0,0.0,71,0.00,,,0.00,WUHU216DAVISVP2,2013-02-01 06:49:00,
2013-02-01 01:54:00,25.2,16.8,29.90,West,279,0.0,0.0,70,0.00,,,0.00,WUHU216DAVISVP2,2013-02-01 06:54:00,
2013-02-01 01:59:00,25.2,17.2,29.90,West,279,0.0,0.0,71,0.00,,,0.00,WUHU216DAVISVP2,2013-02-01 06:59:00,
2013-02-01 02:04:00,25.2,17.5,29.90,West,279,0.0,0.0,72,0.00,,,0.00,WUHU216DAVISVP2,2013-02-01 07:04:00,
2013-02-01 02:09:00,25.4,17.7,29.90,West,279,0.0,1.0,72,0.00,,,0.00,WUHU216DAVISVP2,2013-02-01 07:09:00,
2013-02-01 02:14:00,25.6,17.9,29.90,West,279,0.0,1.0,72,0.00,,,0.00,WUHU216DAVISVP2,2013-02-01 07:14:00,
2013-02-01 02:19:00,25.8,17.7,29.90,West,279,0.0,1.0,71,0.00,,,0.00,WUHU216DAVISVP2,2013-02-01 07:19:00,
2013-02-01 02:24:00,26.1,17.7,29.90,West,279,0.0,1.0,70,0.00,,,0.00,WUHU216DAVISVP2,2013-02-01 07:24:00,
2013-02-01 02:29:00,26.5,18.1,29.89,West,279,0.0,1.0,70,0.00,,,0.00,WUHU216DAVISVP2,2013-02-01 07:29:00,
2013-02-01 02:34:00,26.8,18.0,29.89,West,279,0.0,1.0,69,0.00,,,0.00,WUHU216DAVISVP2,2013-02-01 07:34:00,
2013-02-01 02:39:00,27.0,18.6,29.89,West,279,0.0,1.0,70,0.00,,,0.00,WUHU216DAVISVP2,2013-02-01 07:39:00,
2013-02-01 02:44:00,27.1,18.3,29.89,West,279,0.0,1.0,69,0.00,,,0.00,WUHU216DAVISVP2,2013-02-01 07:44:00,
2013-02-01 02:49:00,27.2,18.4,29.89,West,279,0.0,1.0,69,0.00,,,0.00,WUHU216DAVISVP2,2013-02-01 07:49:00,
2013-02-01 02:54:00,27.3,18.5,29.88,West,279,0.0,1.0,69,0.00,,,0.00,WUHU216DAVISVP2,2013-02-01 07:54:00,
2013-02-01 02:59:00,27.5,18.4,29.88,West,279,0.0,1.0,68,0.00,,,0.00,WUHU216DAVISVP2,2013-02-01 07:59:00,
2013-02-01 03:04:00,27.8,18.3,29.87,West,279,0.0,1.0,67,0.00,,,0.00,WUHU216DAVISVP2,2013-02-01 08:04:00,
2013-02-01 03:09:00,28.1,18.3,29.87,West,279,0.0,1.0,66,0.00,,,0.00,WUHU216DAVISVP2,2013-02-01 08:09:00,
2013-02-01 03:14:00,28.4,18.2,29.87,West,279,0.0,1.0,65,0.00,,,0.00,WUHU216DAVISVP2,2013-02-01 08:14:00,
2013-02-01 03:19:00,28.5,18.6,29.87,West,279,0.0,1.0,66,0.00,,,0.00,WUHU216DAVISVP2,2013-02-01 08:19:00,
2013-02-01 03:24:00,28.6,18.0,29.87,West,279,0.0,1.0,64,0.00,,,0.00,WUHU216DAVISVP2,2013-02-01 08:24:00,
2013-02-01 03:29:00,28.7,18.1,29.86,West,279,0.0,1.0,64,0.00,,,0.00,WUHU216DAVISVP2,2013-02-01 08:29:00,
2013-02-01 03:34:00,28.9,18.3,29.86,West,279,0.0,2.0,64,0.00,,,0.00,WUHU216DAVISVP2,2013-02-01 08:34:00,
2013-02-01 03:39:00,29.1,18.1,29.85,West,279,0.0,2.0,63,0.00,,,0.00,WUHU216DAVISVP2,2013-02-01 08:39:00,
2013-02-01 03:44:00,29.2,17.8,29.85,West,279,0.0,2.0,62,0.00,,,0.00,WUHU216DAVISVP2,2013-02-01 08:44:00,
2013-02-01 03:49:00,29.3,18.3,29.85,West,279,0.0,2.0,63,0.00,,,0.00,WUHU216DAVISVP2,2013-02-01 08:49:00,
2013-02-01 03:54:00,29.4,18.4,29.85,West,279,0.0,2.0,63,0.00,,,0.00,WUHU216DAVISVP2,2013-02-01 08:54:00,
2013-02-01 03:59:00,29.4,18.4,29.84,West,279,0.0,1.0,63,0.00,,,0.00,WUHU216DAVISVP2,2013-02-01 08:59:00,
2013-02-01 04:04:00,29.4,18.4,29.84,West,279,0.0,0.0,63,0.00,,,0.00,WUHU216DAVISVP2,2013-02-01 09:04:00,
2013-02-01 04:09:00,29.4,18.4,29.84,West,279,0.0,0.0,63,0.00,,,0.00,WUHU216DAVISVP2,2013-02-01 09:09:00,
2013-02-01 04:14:00,29.3,18.7,29.84,West,279,0.0,0.0,64,0.00,,,0.00,WUHU216DAVISVP2,2013-02-01 09:14:00,
2013-02-01 04:19:00,29.3,18.7,29.83,West,279,0.0,0.0,64,0.00,,,0.00,WUHU216DAVISVP2,2013-02-01 09:19:00,
2013-02-01 04:24:00,29.3,18.7,29.83,West,279,0.0,0.0,64,0.00,,,0.00,WUHU216DAVISVP2,2013-02-01 09:24:00,
2013-02-01 04:29:00,29.4,19.5,29.83,West,279,0.0,0.0,66,0.00,,,0.00,WUHU216DAVISVP2,2013-02-01 09:29:00,
2013-02-01 04:35:00,29.4,19.1,29.83,West,279,0.0,0.0,65,0.00,,,0.00,WUHU216DAVISVP2,2013-02-01 09:35:00,
2013-02-01 04:40:00,29.4,19.5,29.83,West,279,0.0,0.0,66,0.00,,,0.00,WUHU216DAVISVP2,2013-02-01 09:40:00,
2013-02-01 04:45:00,29.4,19.5,29.83,West,279,0.0,0.0,66,0.00,,,0.00,WUHU216DAVISVP2,2013-02-01 09:45:00,
2013-02-01 04:50:00,29.5,20.0,29.83,West,279,0.0,0.0,67,0.00,,,0.00,WUHU216DAVISVP2,2013-02-01 09:50:00,
2013-02-01 04:55:00,29.5,20.0,29.83,West,279,0.0,0.0,67,0.00,,,0.00,WUHU216DAVISVP2,2013-02-01 09:55:00,
2013-02-01 05:00:00,29.5,20.3,29.83,West,279,0.0,0.0,68,0.00,,,0.00,WUHU216DAVISVP2,2013-02-01 10:00:00,
2013-02-01 05:05:00,29.6,20.7,29.83,West,279,0.0,0.0,69,0.00,,,0.00,WUHU216DAVISVP2,2013-02-01 10:05:00,
2013-02-01 05:10:00,29.5,20.0,29.83,West,279,0.0,0.0,67,0.00,,,0.00,WUHU216DAVISVP2,2013-02-01 10:10:00,
2013-02-01 05:15:00,29.5,20.0,29.83,West,279,0.0,0.0,67,0.00,,,0.00,WUHU216DAVISVP2,2013-02-01 10:15:00,
2013-02-01 05:20:00,29.5,20.3,29.83,West,279,0.0,0.0,68,0.00,,,0.00,WUHU216DAVISVP2,2013-02-01 10:20:00,
2013-02-01 05:25:00,29.5,20.0,29.83,West,279,0.0,0.0,67,0.00,,,0.00,WUHU216DAVISVP2,2013-02-01 10:25:00,
2013-02-01 05:30:00,29.5,20.6,29.83,West,279,0.0,0.0,69,0.00,,,0.00,WUHU216DAVISVP2,2013-02-01 10:30:00,
2013-02-01 05:35:00,29.6,20.4,29.83,West,279,0.0,1.0,68,0.00,,,0.00,WUHU216DAVISVP2,2013-02-01 10:35:00,
2013-02-01 05:40:00,29.8,20.6,29.83,West,279,0.0,2.0,68,0.00,,,0.00,WUHU216DAVISVP2,2013-02-01 10:40:00,
2013-02-01 05:45:00,30.1,20.9,29.83,West,279,1.0,3.0,68,0.00,,,0.00,WUHU216DAVISVP2,2013-02-01 10:45:00,
2013-02-01 05:50:00,30.4,22.2,29.84,West,279,1.0,3.0,71,0.00,,,0.00,WUHU216DAVISVP2,2013-02-01 10:50:00,
2013-02-01 05:55:00,30.5,22.6,29.83,West,279,0.0,3.0,72,0.00,,,0.00,WUHU216DAVISVP2,2013-02-01 10:55:00,
2013-02-01 06:00:00,30.5,22.9,29.83,West,279,0.0,3.0,73,0.00,,,0.00,WUHU216DAVISVP2,2013-02-01 11:00:00,
2013-02-01 06:05:00,30.5,23.2,29.84,West,279,0.0,2.0,74,0.00,,,0.00,WUHU216DAVISVP2,2013-02-01 11:05:00,
2013-02-01 06:10:00,30.5,23.9,29.84,West,279,1.0,2.0,76,0.00,,,0.00,WUHU216DAVISVP2,2013-02-01 11:10:00,
2013-02-01 06:15:00,30.4,24.7,29.85,West,279,3.0,3.0,79,0.00,,,0.00,WUHU216DAVISVP2,2013-02-01 11:15:00,
2013-02-01 06:20:00,30.2,25.1,29.85,West,279,0.0,4.0,81,0.00,,,0.00,WUHU216DAVISVP2,2013-02-01 11:20:00,
2013-02-01 06:25:00,29.9,25.1,29.86,West,278,2.0,5.0,82,0.00,,,0.00,WUHU216DAVISVP2,2013-02-01 11:25:00,
2013-02-01 06:30:00,29.7,25.7,29.86,NW,316,2.0,5.0,85,0.00,,,0.00,WUHU216DAVISVP2,2013-02-01 11:30:00,
2013-02-01 06:35:00,29.4,26.0,29.87,WNW,297,1.0,5.0,87,0.00,,,0.00,WUHU216DAVISVP2,2013-02-01 11:35:00,
2013-02-01 06:40:00,29.2,25.8,29.87,NNW,338,0.0,5.0,87,0.00,,,0.00,WUHU216DAVISVP2,2013-02-01 11:40:00,
2013-02-01 06:45:00,29.0,25.9,29.88,WNW,291,1.0,5.0,88,0.00,,,0.00,WUHU216DAVISVP2,2013-02-01 11:45:00,
2013-02-01 06:50:00,28.9,25.8,29.89,WNW,294,1.0,5.0,88,0.00,,,0.00,WUHU216DAVISVP2,2013-02-01 11:50:00,
2013-02-01 06:55:00,28.9,25.8,29.89,NW,306,2.0,9.0,88,0.00,,,0.00,WUHU216DAVISVP2,2013-02-01 11:55:00,
2013-02-01 07:00:00,28.9,25.8,29.90,NNW,329,3.0,9.0,88,0.00,,,0.00,WUHU216DAVISVP2,2013-02-01 12:00:00,
2013-02-01 07:05:00,28.9,25.8,29.90,NNE,24,2.0,9.0,88,0.00,,,0.00,WUHU216DAVISVP2,2013-02-01 12:05:00,
2013-02-01 07:10:00,28.8,25.9,29.90,West,266,2.0,9.0,89,0.00,,,0.00,WUHU216DAVISVP2,2013-02-01 12:10:00,
2013-02-01 07:15:00,28.7,25.8,29.91,NNW,341,5.0,6.0,89,0.00,,,0.00,WUHU216DAVISVP2,2013-02-01 12:15:00,
2013-02-01 07:20:00,28.5,25.9,29.91,NNE,17,1.0,7.0,90,0.00,,,0.00,WUHU216DAVISVP2,2013-02-01 12:20:00,
2013-02-01 07:25:00,28.5,25.9,29.91,WNW,283,3.0,7.0,90,0.00,,,0.00,WUHU216DAVISVP2,2013-02-01 12:25:00,
2013-02-01 07:30:00,28.5,26.2,29.91,NNE,15,4.0,7.0,91,0.00,,,0.00,WUHU216DAVISVP2,2013-02-01 12:30:00,
2013-02-01 07:35:00,28.4,26.1,29.92,WNW,282,4.0,9.0,91,0.00,,,0.00,WUHU216DAVISVP2,2013-02-01 12:35:00,
2013-02-01 07:40:00,27.9,25.6,29.93,North,350,4.0,14.0,91,0.00,,,0.00,WUHU216DAVISVP2,2013-02-01 12:40:00,
2013-02-01 07:45:00,27.5,24.9,29.93,North,360,2.0,14.0,90,0.00,,,0.00,WUHU216DAVISVP2,2013-02-01 12:45:00,
2013-02-01 07:50:00,27.3,24.4,29.93,WNW,300,0.0,14.0,89,0.00,,,0.00,WUHU216DAVISVP2,2013-02-01 12:50:00,
2013-02-01 07:55:00,27.2,23.8,29.93,NNW,348,3.0,14.0,87,0.00,,,0.00,WUHU216DAVISVP2,2013-02-01 12:55:00,
2013-02-01 08:00:00,27.2,23.8,29.93,NW,304,1.0,10.0,87,0.00,,,0.00,WUHU216DAVISVP2,2013-02-01 13:00:00,
2013-02-01 08:05:00,27.2,23.5,29.93,NNW,331,1.0,10.0,86,0.00,,,0.00,WUHU216DAVISVP2,2013-02-01 13:05:00,
2013-02-01 08:10:00,27.3,23.6,29.94,West,280,0.0,10.0,86,0.00,,,0.00,WUHU216DAVISVP2,2013-02-01 13:10:00,
2013-02-01 08:15:00,27.4,23.5,29.94,WNW,290,2.0,6.0,85,0.00,,,0.00,WUHU216DAVISVP2,2013-02-01 13:15:00,
2013-02-01 08:20:00,27.5,23.3,29.95,NNW,338,2.0,7.0,84,0.00,,,0.00,WUHU216DAVISVP2,2013-02-01 13:20:00,
2013-02-01 08:25:00,27.7,23.2,29.95,WNW,298,2.0,12.0,83,0.00,,,0.00,WUHU216DAVISVP2,2013-02-01 13:25:00,
2013-02-01 08:30:00,27.8,22.7,29.96,WNW,287,8.0,15.0,81,0.00,,,0.00,WUHU216DAVISVP2,2013-02-01 13:30:00,
2013-02-01 08:35:00,28.0,22.3,29.96,WNW,292,3.0,15.0,79,0.00,,,0.00,WUHU216DAVISVP2,2013-02-01 13:35:00,
2013-02-01 08:40:00,28.1,22.7,29.96,NNE,13,4.0,15.0,80,0.00,,,0.00,WUHU216DAVISVP2,2013-02-01 13:40:00,
2013-02-01 08:45:00,28.1,22.4,29.97,WNW,282,2.0,13.0,79,0.00,,,0.00,WUHU216DAVISVP2,2013-02-01 13:45:00,
2013-02-01 08:50:00,28.1,21.8,29.97,WSW,257,16.0,16.0,77,0.00,,,0.00,WUHU216DAVISVP2,2013-02-01 13:50:00,
2013-02-01 08:55:00,28.1,20.6,29.98,NE,40,2.0,17.0,73,0.00,,,0.00,WUHU216DAVISVP2,2013-02-01 13:55:00,
2013-02-01 09:01:00,28.1,20.3,29.98,North,360,6.0,17.0,72,0.00,,,0.00,WUHU216DAVISVP2,2013-02-01 14:01:00,
2013-02-01 09:06:00,28.3,19.5,29.98,SW,228,5.0,17.0,69,0.00,,,0.00,WUHU216DAVISVP2,2013-02-01 14:06:00,
2013-02-01 09:11:00,28.3,18.8,29.98,West,275,9.0,19.0,67,0.00,,,0.00,WUHU216DAVISVP2,2013-02-01 14:11:00,
2013-02-01 09:16:00,28.1,18.3,29.99,West,281,5.0,19.0,66,0.00,,,0.00,WUHU216DAVISVP2,2013-02-01 14:16:00,
2013-02-01 09:21:00,28.0,18.2,29.99,WNW,284,12.0,19.0,66,0.00,,,0.00,WUHU216DAVISVP2,2013-02-01 14:21:00,
2013-02-01 09:26:00,28.3,18.1,30.00,West,269,7.0,19.0,65,0.00,,,0.00,WUHU216DAVISVP2,2013-02-01 14:26:00,
2013-02-01 09:31:00,28.2,16.5,30.00,NE,55,5.0,19.0,61,0.00,,,0.00,WUHU216DAVISVP2,2013-02-01 14:31:00,
2013-02-01 09:36:00,27.8,15.8,30.00,WNW,301,9.0,29.0,60,0.00,,,0.00,WUHU216DAVISVP2,2013-02-01 14:36:00,
2013-02-01 09:41:00,27.5,15.5,30.01,NW,308,7.0,29.0,60,0.00,,,0.00,WUHU216DAVISVP2,2013-02-01 14:41:00,
2013-02-01 09:46:00,27.4,15.4,30.02,NNE,13,2.0,29.0,60,0.00,,,0.00,WUHU216DAVISVP2,2013-02-01 14:46:00,
2013-02-01 09:51:00,27.5,15.1,30.01,West,279,6.0,29.0,59,0.00,,,0.00,WUHU216DAVISVP2,2013-02-01 14:51:00,
2013-02-01 09:56:00,27.7,15.7,30.02,NE,41,4.0,17.0,60,0.00,,,0.00,WUHU216DAVISVP2,2013-02-01 14:56:00,
2013-02-01 10:01:00,27.7,13.2,30.03,West,274,7.0,17.0,54,0.00,,,0.00,WUHU216DAVISVP2,2013-02-01 15:01:00,
2013-02-01 10:06:00,27.6,13.5,30.03,NNW,336,4.0,17.0,55,0.00,,,0.00,WUHU216DAVISVP2,2013-02-01 15:06:00,
2013-02-01 10:11:00,27.4,13.3,30.04,WSW,254,2.0,17.0,55,0.00,,,0.00,WUHU216DAVISVP2,2013-02-01 15:11:00,
2013-02-01 10:16:00,27.3,12.4,30.04,WNW,299,7.0,22.0,53,0.00,,,0.00,WUHU216DAVISVP2,2013-02-01 15:16:00,
2013-02-01 10:21:00,27.1,11.8,30.04,North,11,6.0,22.0,52,0.00,,,0.00,WUHU216DAVISVP2,2013-02-01 15:21:00,
2013-02-01 10:26:00,27.0,12.5,30.05,NNW,327,8.0,22.0,54,0.00,,,0.00,WUHU216DAVISVP2,2013-02-01 15:26:00,
2013-02-01 10:31:00,27.5,13.0,30.05,NNW,348,5.0,22.0,54,0.00,,,0.00,WUHU216DAVISVP2,2013-02-01 15:31:00,
2013-02-01 10:36:00,27.8,13.3,30.06,WNW,292,4.0,18.0,54,0.00,,,0.00,WUHU216DAVISVP2,2013-02-01 15:36:00,
2013-02-01 10:41:00,27.7,12.3,30.06,NW,307,9.0,18.0,52,0.00,,,0.00,WUHU216DAVISVP2,2013-02-01 15:41:00,
2013-02-01 10:46:00,27.9,13.8,30.06,NNW,341,4.0,18.0,55,0.00,,,0.00,WUHU216DAVISVP2,2013-02-01 15:46:00,
2013-02-01 10:51:00,28.0,12.6,30.07,NW,317,5.0,18.0,52,0.00,,,0.00,WUHU216DAVISVP2,2013-02-01 15:51:00,
2013-02-01 10:56:00,27.7,12.8,30.07,North,5,4.0,16.0,53,0.00,,,0.00,WUHU216DAVISVP2,2013-02-01 15:56:00,
2013-02-01 11:01:00,27.7,10.9,30.07,NE,46,6.0,16.0,49,0.00,,,0.00,WUHU216DAVISVP2,2013-02-01 16:01:00,
2013-02-01 11:06:00,27.8,11.5,30.07,West,281,9.0,18.0,50,0.00,,,0.00,WUHU216DAVISVP2,2013-02-01 16:06:00,
2013-02-01 11:11:00,28.2,12.8,30.08,North,360,5.0,18.0,52,0.00,,,0.00,WUHU216DAVISVP2,2013-02-01 16:11:00,
2013-02-01 11:16:00,28.4,12.5,30.08,WNW,291,4.0,18.0,51,0.00,,,0.00,WUHU216DAVISVP2,2013-02-01 16:16:00,
2013-02-01 11:21:00,28.2,12.4,30.08,WSW,252,9.0,19.0,51,0.00,,,0.00,WUHU216DAVISVP2,2013-02-01 16:21:00,
2013-02-01 11:26:00,28.1,11.3,30.09,SW,221,7.0,22.0,49,0.00,,,0.00,WUHU216DAVISVP2,2013-02-01 16:26:00,
2013-02-01 11:31:00,28.2,10.9,30.09,West,281,3.0,22.0,48,0.00,,,0.00,WUHU216DAVISVP2,2013-02-01 16:31:00,
2013-02-01 11:36:00,28.5,13.5,30.09,WNW,302,3.0,22.0,53,0.00,,,0.00,WUHU216DAVISVP2,2013-02-01 16:36:00,
2013-02-01 11:41:00,28.7,13.3,30.09,SW,232,7.0,22.0,52,0.00,,,0.00,WUHU216DAVISVP2,2013-02-01 16:41:00,
2013-02-01 11:46:00,28.5,12.6,30.09,NW,316,2.0,18.0,51,0.00,,,0.00,WUHU216DAVISVP2,2013-02-01 16:46:00,
2013-02-01 11:51:00,28.3,12.4,30.09,NNW,336,3.0,17.0,51,0.00,,,0.00,WUHU216DAVISVP2,2013-02-01 16:51:00,
2013-02-01 11:56:00,28.2,13.2,30.10,WNW,284,9.0,17.0,53,0.00,,,0.00,WUHU216DAVISVP2,2013-02-01 16:56:00,
2013-02-01 12:01:00,28.1,10.8,30.10,NNW,346,4.0,17.0,48,0.00,,,0.00,WUHU216DAVISVP2,2013-02-01 17:01:00,
2013-02-01 12:06:00,28.4,12.5,30.10,WNW,292,3.0,18.0,51,0.00,,,0.00,WUHU216DAVISVP2,2013-02-01 17:06:00,
2013-02-01 12:11:00,28.5,12.6,30.10,West,273,10.0,18.0,51,0.00,,,0.00,WUHU216DAVISVP2,2013-02-01 17:11:00,
2013-02-01 12:16:00,28.7,12.3,30.10,WNW,290,4.0,18.0,50,0.00,,,0.00,WUHU216DAVISVP2,2013-02-01 17:16:00,
2013-02-01 12:21:00,29.1,12.2,30.10,WNW,300,4.0,25.0,49,0.00,,,0.00,WUHU216DAVISVP2,2013-02-01 17:21:00,
2013-02-01 12:26:00,29.2,12.8,30.11,NW,305,3.0,25.0,50,0.00,,,0.00,WUHU216DAVISVP2,2013-02-01 17:26:00,
2013-02-01 12:31:00,29.0,11.2,30.11,North,11,6.0,25.0,47,0.00,,,0.00,WUHU216DAVISVP2,2013-02-01 17:31:00,
2013-02-01 12:36:00,28.6,11.3,30.11,West,279,11.0,25.0,48,0.00,,,0.00,WUHU216DAVISVP2,2013-02-01 17:36:00,
2013-02-01 12:41:00,28.4,11.1,30.11,SW,228,10.0,20.0,48,0.00,,,0.00,WUHU216DAVISVP2,2013-02-01 17:41:00,
2013-02-01 12:46:00,28.3,10.5,30.12,North,5,6.0,20.0,47,0.00,,,0.00,WUHU216DAVISVP2,2013-02-01 17:46:00,
2013-02-01 12:52:00,28.2,11.4,30.12,NE,38,5.0,20.0,49,0.00,,,0.00,WUHU216DAVISVP2,2013-02-01 17:52:00,
2013-02-01 12:57:00,28.2,11.0,30.12,NNW,342,5.0,20.0,48,0.00,,,0.00,WUHU216DAVISVP2,2013-02-01 17:57:00,
2013-02-01 13:02:00,28.3,11.0,30.12,NW,322,6.0,20.0,48,0.00,,,0.00,WUHU216DAVISVP2,2013-02-01 18:02:00,
2013-02-01 13:07:00,28.2,11.4,30.12,NW,306,1.0,20.0,49,0.00,,,0.00,WUHU216DAVISVP2,2013-02-01 18:07:00,
2013-02-01 13:12:00,28.4,12.6,30.12,West,262,5.0,20.0,51,0.00,,,0.00,WUHU216DAVISVP2,2013-02-01 18:12:00,
2013-02-01 13:17:00,28.5,11.2,30.12,North,360,9.0,20.0,48,0.00,,,0.00,WUHU216DAVISVP2,2013-02-01 18:17:00,
2013-02-01 13:22:00,28.7,11.9,30.12,WNW,296,11.0,16.0,49,0.00,,,0.00,WUHU216DAVISVP2,2013-02-01 18:22:00,
2013-02-01 13:27:00,29.0,11.7,30.12,WNW,301,7.0,16.0,48,0.00,,,0.00,WUHU216DAVISVP2,2013-02-01 18:27:00,
2013-02-01 13:32:00,29.0,10.8,30.12,WSW,254,5.0,17.0,46,0.00,,,0.00,WUHU216DAVISVP2,2013-02-01 18:32:00,
2013-02-01 13:37:00,29.0,10.2,30.12,WNW,300,6.0,17.0,45,0.00,,,0.00,WUHU216DAVISVP2,2013-02-01 18:37:00,
2013-02-01 13:42:00,29.2,10.3,30.12,West,280,8.0,18.0,45,0.00,,,0.00,WUHU216DAVISVP2,2013-02-01 18:42:00,
2013-02-01 13:47:00,29.1,11.3,30.13,WNW,291,5.0,18.0,47,0.00,,,0.00,WUHU216DAVISVP2,2013-02-01 18:47:00,
2013-02-01 13:52:00,29.2,10.9,30.13,WNW,288,12.0,20.0,46,0.00,,,0.00,WUHU216DAVISVP2,2013-02-01 18:52:00,
2013-02-01 13:57:00,29.1,11.7,30.13,WSW,238,2.0,20.0,48,0.00,,,0.00,WUHU216DAVISVP2,2013-02-01 18:57:00,
2013-02-01 14:02:00,29.1,10.4,30.13,NW,309,5.0,20.0,45,0.00,,,0.00,WUHU216DAVISVP2,2013-02-01 19:02:00,
2013-02-01 14:07:00,28.9,9.0,30.13,NW,321,5.0,20.0,43,0.00,,,0.00,WUHU216DAVISVP2,2013-02-01 19:07:00,
2013-02-01 14:12:00,28.8,10.1,30.14,West,270,5.0,18.0,45,0.00,,,0.00,WUHU216DAVISVP2,2013-02-01 19:12:00,
2013-02-01 14:17:00,28.8,9.6,30.14,WNW,299,5.0,16.0,44,0.00,,,0.00,WUHU216DAVISVP2,2013-02-01 19:17:00,
2013-02-01 14:22:00,28.7,10.0,30.14,WSW,250,5.0,22.0,45,0.00,,,0.00,WUHU216DAVISVP2,2013-02-01 19:22:00,
2013-02-01 14:27:00,28.8,10.1,30.14,West,279,5.0,22.0,45,0.00,,,0.00,WUHU216DAVISVP2,2013-02-01 19:27:00,
2013-02-01 14:32:00,28.8,10.6,30.15,NW,323,9.0,22.0,46,0.00,,,0.00,WUHU216DAVISVP2,2013-02-01 19:32:00,
2013-02-01 14:37:00,28.8,8.9,30.15,West,281,13.0,22.0,43,0.00,,,0.00,WUHU216DAVISVP2,2013-02-01 19:37:00,
2013-02-01 14:42:00,28.8,9.5,30.16,WSW,254,12.0,17.0,44,0.00,,,0.00,WUHU216DAVISVP2,2013-02-01 19:42:00,
2013-02-01 14:47:00,28.4,9.1,30.16,WNW,298,4.0,17.0,44,0.00,,,0.00,WUHU216DAVISVP2,2013-02-01 19:47:00,
2013-02-01 14:52:00,27.9,9.7,30.16,NW,306,2.0,21.0,46,0.00,,,0.00,WUHU216DAVISVP2,2013-02-01 19:52:00,
2013-02-01 14:57:00,27.8,8.7,30.17,West,278,9.0,21.0,44,0.00,,,0.00,WUHU216DAVISVP2,2013-02-01 19:57:00,
2013-02-01 15:03:00,27.8,9.1,30.17,West,280,6.0,21.0,45,0.00,,,0.00,WUHU216DAVISVP2,2013-02-01 20:03:00,
2013-02-01 15:08:00,28.0,9.2,30.17,NW,305,4.0,20.0,45,0.00,,,0.00,WUHU216DAVISVP2,2013-02-01 20:08:00,
2013-02-01 15:13:00,28.3,8.5,30.17,North,350,8.0,20.0,43,0.00,,,0.00,WUHU216DAVISVP2,2013-02-01 20:13:00,
2013-02-01 15:18:00,28.3,9.0,30.17,WNW,291,10.0,19.0,44,0.00,,,0.00,WUHU216DAVISVP2,2013-02-01 20:18:00,
2013-02-01 15:23:00,28.1,8.8,30.17,NW,319,3.0,19.0,44,0.00,,,0.00,WUHU216DAVISVP2,2013-02-01 20:23:00,
2013-02-01 15:28:00,28.2,9.0,30.18,NNW,335,2.0,19.0,44,0.00,,,0.00,WUHU216DAVISVP2,2013-02-01 20:28:00,
2013-02-01 15:33:00,28.4,9.1,30.18,West,271,4.0,19.0,44,0.00,,,0.00,WUHU216DAVISVP2,2013-02-01 20:33:00,
2013-02-01 15:38:00,28.3,9.0,30.19,West,263,6.0,16.0,44,0.00,,,0.00,WUHU216DAVISVP2,2013-02-01 20:38:00,
2013-02-01 15:43:00,28.1,9.0,30.19,North,9,4.0,16.0,44,0.00,,,0.00,WUHU216DAVISVP2,2013-02-01 20:43:00,
2013-02-01 15:48:00,28.3,10.0,30.19,West,273,1.0,16.0,46,0.00,,,0.00,WUHU216DAVISVP2,2013-02-01 20:48:00,
2013-02-01 15:53:00,28.6,10.3,30.20,WNW,301,10.0,23.0,46,0.00,,,0.00,WUHU216DAVISVP2,2013-02-01 20:53:00,
2013-02-01 15:58:00,28.4,9.2,30.19,WSW,247,4.0,23.0,44,0.00,,,0.00,WUHU216DAVISVP2,2013-02-01 20:58:00,
2013-02-01 16:03:00,28.3,9.0,30.20,WNW,286,6.0,23.0,44,0.00,,,0.00,WUHU216DAVISVP2,2013-02-01 21:03:00,
2013-02-01 16:08:00,28.1,8.3,30.20,West,277,9.0,23.0,43,0.00,,,0.00,WUHU216DAVISVP2,2013-02-01 21:08:00,
2013-02-01 16:13:00,27.8,9.1,30.20,West,274,7.0,22.0,45,0.00,,,0.00,WUHU216DAVISVP2,2013-02-01 21:13:00,
2013-02-01 16:18:00,27.9,9.7,30.21,West,281,2.0,22.0,46,0.00,,,0.00,WUHU216DAVISVP2,2013-02-01 21:18:00,
2013-02-01 16:23:00,27.8,9.1,30.21,North,355,4.0,22.0,45,0.00,,,0.00,WUHU216DAVISVP2,2013-02-01 21:23:00,
2013-02-01 16:28:00,27.5,8.3,30.21,WNW,286,5.0,17.0,44,0.00,,,0.00,WUHU216DAVISVP2,2013-02-01 21:28:00,
2013-02-01 16:33:00,27.1,7.4,30.22,NW,317,4.0,17.0,43,0.00,,,0.00,WUHU216DAVISVP2,2013-02-01 21:33:00,
2013-02-01 16:38:00,27.0,7.8,30.22,SW,225,2.0,17.0,44,0.00,,,0.00,WUHU216DAVISVP2,2013-02-01 21:38:00,
2013-02-01 16:43:00,26.6,7.5,30.22,West,276,7.0,17.0,44,0.00,,,0.00,WUHU216DAVISVP2,2013-02-01 21:43:00,
2013-02-01 16:48:00,26.4,7.3,30.23,NNW,336,5.0,17.0,44,0.00,,,0.00,WUHU216DAVISVP2,2013-02-01 21:48:00,
2013-02-01 16:53:00,26.2,7.6,30.23,West,263,8.0,17.0,45,0.00,,,0.00,WUHU216DAVISVP2,2013-02-01 21:53:00,
2013-02-01 16:58:00,26.0,7.9,30.23,NNW,334,5.0,17.0,46,0.00,,,0.00,WUHU216DAVISVP2,2013-02-01 21:58:00,
2013-02-01 17:03:00,25.9,7.8,30.23,WNW,288,11.0,16.0,46,0.00,,,0.00,WUHU216DAVISVP2,2013-02-01 22:03:00,
2013-02-01 17:08:00,25.8,7.7,30.23,NNW,328,3.0,15.0,46,0.00,,,0.00,WUHU216DAVISVP2,2013-02-01 22:08:00,
2013-02-01 17:13:00,25.7,8.1,30.23,WNW,284,7.0,14.0,47,0.00,,,0.00,WUHU216DAVISVP2,2013-02-01 22:13:00,
2013-02-01 17:18:00,25.6,8.0,30.24,WNW,295,5.0,14.0,47,0.00,,,0.00,WUHU216DAVISVP2,2013-02-01 22:18:00,
2013-02-01 17:23:00,25.4,8.3,30.24,NNW,336,6.0,14.0,48,0.00,,,0.00,WUHU216DAVISVP2,2013-02-01 22:23:00,
2013-02-01 17:28:00,25.3,7.8,30.24,West,275,7.0,14.0,47,0.00,,,0.00,WUHU216DAVISVP2,2013-02-01 22:28:00,
2013-02-01 17:33:00,25.2,8.2,30.25,West,281,4.0,13.0,48,0.00,,,0.00,WUHU216DAVISVP2,2013-02-01 22:33:00,
2013-02-01 17:38:00,25.0,7.5,30.25,NE,42,3.0,15.0,47,0.00,,,0.00,WUHU216DAVISVP2,2013-02-01 22:38:00,
2013-02-01 17:43:00,24.9,7.4,30.25,NW,315,1.0,15.0,47,0.00,,,0.00,WUHU216DAVISVP2,2013-02-01 22:43:00,
2013-02-01 17:48:00,24.9,7.4,30.25,West,277,0.0,15.0,47,0.00,,,0.00,WUHU216DAVISVP2,2013-02-01 22:48:00,
2013-02-01 17:53:00,24.8,6.8,30.26,WNW,292,3.0,13.0,46,0.00,,,0.00,WUHU216DAVISVP2,2013-02-01 22:53:00,
2013-02-01 17:58:00,24.7,7.2,30.26,WNW,300,2.0,14.0,47,0.00,,,0.00,WUHU216DAVISVP2,2013-02-01 22:58:00,
2013-02-01 18:03:00,24.6,7.1,30.27,WNW,282,8.0,14.0,47,0.00,,,0.00,WUHU216DAVISVP2,2013-02-01 23:03:00,
2013-02-01 18:08:00,24.6,7.6,30.27,WNW,292,3.0,14.0,48,0.00,,,0.00,WUHU216DAVISVP2,2013-02-01 23:08:00,
2013-02-01 18:13:00,24.4,7.5,30.27,West,269,7.0,14.0,48,0.00,,,0.00,WUHU216DAVISVP2,2013-02-01 23:13:00,
2013-02-01 18:18:00,24.4,6.9,30.28,West,275,6.0,10.0,47,0.00,,,0.00,WUHU216DAVISVP2,2013-02-01 23:18:00,
2013-02-01 18:23:00,24.4,6.9,30.28,North,355,2.0,10.0,47,0.00,,,0.00,WUHU216DAVISVP2,2013-02-01 23:23:00,
2013-02-01 18:28:00,24.3,6.8,30.29,NE,36,6.0,11.0,47,0.00,,,0.00,WUHU216DAVISVP2,2013-02-01 23:28:00,
2013-02-01 18:33:00,24.2,7.2,30.29,WSW,237,4.0,11.0,48,0.00,,,0.00,WUHU216DAVISVP2,2013-02-01 23:33:00,
2013-02-01 18:38:00,24.1,7.2,30.29,West,265,0.0,12.0,48,0.00,,,0.00,WUHU216DAVISVP2,2013-02-01 23:38:00,
2013-02-01 18:43:00,24.0,7.0,30.29,WNW,284,2.0,12.0,48,0.00,,,0.00,WUHU216DAVISVP2,2013-02-01 23:43:00,
2013-02-01 18:48:00,23.8,7.3,30.30,WNW,298,1.0,12.0,49,0.00,,,0.00,WUHU216DAVISVP2,2013-02-01 23:48:00,
2013-02-01 18:53:00,23.7,7.7,30.30,West,280,6.0,12.0,50,0.00,,,0.00,WUHU216DAVISVP2,2013-02-01 23:53:00,
2013-02-01 18:58:00,23.6,6.8,30.30,WSW,241,3.0,14.0,48,0.00,,,0.00,WUHU216DAVISVP2,2013-02-01 23:58:00,
2013-02-01 19:03:00,23.6,6.7,30.30,WNW,301,1.0,14.0,48,0.00,,,0.00,WUHU216DAVISVP2,2013-02-02 00:03:00,
2013-02-01 19:08:00,23.4,6.5,30.31,WNW,302,3.0,14.0,48,0.00,,,0.00,WUHU216DAVISVP2,2013-02-02 00:08:00,
2013-02-01 19:13:00,23.4,6.5,30.31,WNW,284,14.0,17.0,48,0.00,,,0.00,WUHU216DAVISVP2,2013-02-02 00:13:00,
2013-02-01 19:18:00,23.4,6.5,30.31,West,273,5.0,17.0,48,0.00,,,0.00,WUHU216DAVISVP2,2013-02-02 00:18:00,
2013-02-01 19:23:00,23.3,6.4,30.32,WSW,252,7.0,17.0,48,0.00,,,0.00,WUHU216DAVISVP2,2013-02-02 00:23:00,
2013-02-01 19:28:00,23.2,6.3,30.32,West,275,5.0,15.0,48,0.00,,,0.00,WUHU216DAVISVP2,2013-02-02 00:28:00,
2013-02-01 19:33:00,23.2,5.8,30.32,NNW,338,4.0,16.0,47,0.00,,,0.00,WUHU216DAVISVP2,2013-02-02 00:33:00,
2013-02-01 19:38:00,23.2,6.3,30.32,WSW,258,3.0,16.0,48,0.00,,,0.00,WUHU216DAVISVP2,2013-02-02 00:38:00,
2013-02-01 19:43:00,23.1,6.7,30.33,WNW,288,0.0,16.0,49,0.00,,,0.00,WUHU216DAVISVP2,2013-02-02 00:43:00,
2013-02-01 19:48:00,23.0,6.6,30.33,WSW,256,2.0,16.0,49,0.00,,,0.00,WUHU216DAVISVP2,2013-02-02 00:48:00,
2013-02-01 19:53:00,22.9,7.0,30.33,West,273,3.0,12.0,50,0.00,,,0.00,WUHU216DAVISVP2,2013-02-02 00:53:00,
2013-02-01 19:58:00,22.8,6.4,30.33,WNW,298,4.0,10.0,49,0.00,,,0.00,WUHU216DAVISVP2,2013-02-02 00:58:00,
2013-02-01 20:03:00,22.7,7.2,30.33,NW,316,1.0,10.0,51,0.00,,,0.00,WUHU216DAVISVP2,2013-02-02 01:03:00,
2013-02-01 20:08:00,22.7,7.2,30.33,NW,309,0.0,10.0,51,0.00,,,0.00,WUHU216DAVISVP2,2013-02-02 01:08:00,
2013-02-01 20:13:00,22.5,7.0,30.33,WNW,291,0.0,10.0,51,0.00,,,0.00,WUHU216DAVISVP2,2013-02-02 01:13:00,
2013-02-01 20:18:00,22.5,7.0,30.33,NW,309,1.0,8.0,51,0.00,,,0.00,WUHU216DAVISVP2,2013-02-02 01:18:00,
2013-02-01 20:23:00,22.4,6.9,30.34,West,260,3.0,8.0,51,0.00,,,0.00,WUHU216DAVISVP2,2013-02-02 01:23:00,
2013-02-01 20:28:00,22.3,7.3,30.34,West,265,2.0,8.0,52,0.00,,,0.00,WUHU216DAVISVP2,2013-02-02 01:28:00,
2013-02-01 20:33:00,22.2,6.8,30.34,West,265,9.0,10.0,51,0.00,,,0.00,WUHU216DAVISVP2,2013-02-02 01:33:00,
2013-02-01 20:38:00,22.2,6.8,30.34,NW,321,1.0,10.0,51,0.00,,,0.00,WUHU216DAVISVP2,2013-02-02 01:38:00,
2013-02-01 20:43:00,22.2,7.2,30.34,WNW,292,4.0,10.0,52,0.00,,,0.00,WUHU216DAVISVP2,2013-02-02 01:43:00,
2013-02-01 20:48:00,22.1,7.1,30.34,NW,318,3.0,10.0,52,0.00,,,0.00,WUHU216DAVISVP2,2013-02-02 01:48:00,
2013-02-01 20:53:00,22.0,7.5,30.34,West,277,2.0,10.0,53,0.00,,,0.00,WUHU216DAVISVP2,2013-02-02 01:53:00,
2013-02-01 20:58:00,22.0,7.5,30.34,West,265,5.0,10.0,53,0.00,,,0.00,WUHU216DAVISVP2,2013-02-02 01:58:00,
2013-02-01 21:03:00,22.0,7.0,30.34,WNW,294,1.0,10.0,52,0.00,,,0.00,WUHU216DAVISVP2,2013-02-02 02:03:00,
2013-02-01 21:08:00,22.0,7.0,30.35,WNW,288,3.0,10.0,52,0.00,,,0.00,WUHU216DAVISVP2,2013-02-02 02:08:00,
2013-02-01 21:13:00,21.8,6.8,30.35,WNW,290,0.0,10.0,52,0.00,,,0.00,WUHU216DAVISVP2,2013-02-02 02:13:00,
2013-02-01 21:18:00,21.8,6.8,30.36,West,275,4.0,11.0,52,0.00,,,0.00,WUHU216DAVISVP2,2013-02-02 02:18:00,
2013-02-01 21:23:00,21.7,6.7,30.36,West,273,2.0,11.0,52,0.00,,,0.00,WUHU216DAVISVP2,2013-02-02 02:23:00,
2013-02-01 21:28:00,21.7,7.2,30.36,NW,319,2.0,11.0,53,0.00,,,0.00,WUHU216DAVISVP2,2013-02-02 02:28:00,
2013-02-01 21:33:00,21.6,6.6,30.35,West,280,0.0,11.0,52,0.00,,,0.00,WUHU216DAVISVP2,2013-02-02 02:33:00,
2013-02-01 21:38:00,21.6,7.1,30.36,WNW,300,6.0,10.0,53,0.00,,,0.00,WUHU216DAVISVP2,2013-02-02 02:38:00,
2013-02-01 21:43:00,21.6,6.7,30.36,WNW,297,0.0,10.0,52,0.00,,,0.00,WUHU216DAVISVP2,2013-02-02 02:43:00,
2013-02-01 21:49:00,21.5,6.6,30.37,West,264,1.0,10.0,52,0.00,,,0.00,WUHU216DAVISVP2,2013-02-02 02:49:00,
2013-02-01 21:54:00,21.4,6.9,30.36,WNW,286,1.0,10.0,53,0.00,,,0.00,WUHU216DAVISVP2,2013-02-02 02:54:00,
2013-02-01 21:59:00,21.3,6.8,30.36,WNW,285,6.0,9.0,53,0.00,,,0.00,WUHU216DAVISVP2,2013-02-02 02:59:00,
2013-02-01 22:04:00,21.2,6.7,30.37,WNW,300,2.0,9.0,53,0.00,,,0.00,WUHU216DAVISVP2,2013-02-02 03:04:00,
2013-02-01 22:09:00,21.1,7.0,30.37,NNW,327,2.0,9.0,54,0.00,,,0.00,WUHU216DAVISVP2,2013-02-02 03:09:00,
2013-02-01 22:14:00,21.1,7.0,30.37,West,279,0.0,8.0,54,0.00,,,0.00,WUHU216DAVISVP2,2013-02-02 03:14:00,
2013-02-01 22:19:00,21.0,6.5,30.37,West,281,3.0,8.0,53,0.00,,,0.00,WUHU216DAVISVP2,2013-02-02 03:19:00,
2013-02-01 22:24:00,20.9,6.8,30.37,WNW,300,2.0,8.0,54,0.00,,,0.00,WUHU216DAVISVP2,2013-02-02 03:24:00,
2013-02-01 22:29:00,20.9,6.8,30.38,WNW,284,1.0,9.0,54,0.00,,,0.00,WUHU216DAVISVP2,2013-02-02 03:29:00,
2013-02-01 22:34:00,20.8,6.7,30.38,WSW,250,1.0,9.0,54,0.00,,,0.00,WUHU216DAVISVP2,2013-02-02 03:34:00,
2013-02-01 22:39:00,20.8,6.7,30.38,West,275,2.0,9.0,54,0.00,,,0.00,WUHU216DAVISVP2,2013-02-02 03:39:00,
2013-02-01 22:44:00,20.7,7.1,30.38,WNW,285,1.0,8.0,55,0.00,,,0.00,WUHU216DAVISVP2,2013-02-02 03:44:00,
2013-02-01 22:49:00,20.6,6.6,30.39,West,269,2.0,11.0,54,0.00,,,0.00,WUHU216DAVISVP2,2013-02-02 03:49:00,
2013-02-01 22:54:00,20.6,6.6,30.38,WNW,284,3.0,11.0,54,0.00,,,0.00,WUHU216DAVISVP2,2013-02-02 03:54:00,
2013-02-01 22:59:00,20.6,7.0,30.38,West,277,3.0,11.0,55,0.00,,,0.00,WUHU216DAVISVP2,2013-02-02 03:59:00,
2013-02-01 23:04:00,20.6,7.0,30.38,NW,311,0.0,11.0,55,0.00,,,0.00,WUHU216DAVISVP2,2013-02-02 04:04:00,
2013-02-01 23:09:00,20.5,6.5,30.38,WNW,298,2.0,9.0,54,0.00,,,0.00,WUHU216DAVISVP2,2013-02-02 04:09:00,
2013-02-01 23:14:00,20.5,6.9,30.39,WNW,294,1.0,9.0,55,0.00,,,0.00,WUHU216DAVISVP2,2013-02-02 04:14:00,
2013-02-01 23:19:00,20.5,6.9,30.38,North,5,2.0,11.0,55,0.00,,,0.00,WUHU216DAVISVP2,2013-02-02 04:19:00,
2013-02-01 23:24:00,20.4,6.8,30.39,NNW,346,0.0,11.0,55,0.00,,,0.00,WUHU216DAVISVP2,2013-02-02 04:24:00,
2013-02-01 23:29:00,20.4,6.8,30.39,WSW,257,1.0,11.0,55,0.00,,,0.00,WUHU216DAVISVP2,2013-02-02 04:29:00,
2013-02-01 23:34:00,20.3,6.7,30.39,WNW,294,1.0,11.0,55,0.00,,,0.00,WUHU216DAVISVP2,2013-02-02 04:34:00,
2013-02-01 23:39:00,20.2,7.0,30.39,West,263,2.0,8.0,56,0.00,,,0.00,WUHU216DAVISVP2,2013-02-02 04:39:00,
2013-02-01 23:44:00,20.2,7.0,30.39,WNW,298,0.0,8.0,56,0.00,,,0.00,WUHU216DAVISVP2,2013-02-02 04:44:00,
2013-02-01 23:49:00,20.1,6.9,30.39,West,268,4.0,8.0,56,0.00,,,0.00,WUHU216DAVISVP2,2013-02-02 04:49:00,
2013-02-01 23:54:00,20.1,6.9,30.40,West,267,5.0,8.0,56,0.00,,,0.00,WUHU216DAVISVP2,2013-02-02 04:54:00,
2013-02-01 23:59:00,20.0,7.2,30.40,West,269,3.0,8.0,57,0.00,,,0.00,WUHU216DAVISVP2,2013-02-02 04:59:00,